{"data":{"norad_id":65112,"intl_designator":"2025-168G","name":"HULIANWANG DIGUI-55","alt_names":[],"object_type":"PAYLOAD","status":"ACTIVE","operator":null,"country":"PRC","launch_date":"2025-08-04","launch_site_code":"WSC","launch_vehicle":null,"mission":null,"orbit_class":"UNKNOWN","rcs_meters":null,"size_class":null,"mass_kg":null,"dimensions":null,"purposes":[],"wikipedia_slug":null,"has_3d_model":false,"image_url":null,"decayed_at":null,"tle_current":{"epoch":"2026-09-21T17:24:14.914368Z","epoch_age_seconds":59493,"freshness":"FRESH","line1":"1 65112U 25168G   26264.72517262 -.00000093  00000+0  67365-4 0  9992","line2":"2 65112  50.0015 339.2356 0011106  20.2140 339.9170 13.29326932 55537","mean_motion":13.29326932,"eccentricity":0.0011106,"inclination_deg":50.0015,"raan_deg":339.2356,"arg_perigee_deg":20.214,"mean_anomaly_deg":339.917,"bstar":6.7365e-5,"rev_number":5553,"period_min":108.32549656039,"perigee_km":1140.9430785693,"apogee_km":1157.6630284161,"semimajor_km":7527.4400534927,"source":"CELESTRAK","updated_at":"2026-09-22T09:00:30.138740Z"}}}